Time,TemperatureF,DewpointF,PressureIn,WindDirection,WindDirectionDegrees,WindSpeedMPH,WindSpeedGustMPH,Humidity,HourlyPrecipIn,Conditions,Clouds,dailyrainin,SoftwareType,DateUTC
2013-03-26 00:03:00,31.0,21.0,30.29,West,275,1.0,-999.0,65,-99.99,,,-99.99,,2013-03-26 04:03:00,
2013-03-26 00:12:00,31.0,21.0,30.29,West,275,1.0,-999.0,65,-99.99,,,-99.99,,2013-03-26 04:12:00,
2013-03-26 00:23:00,31.0,21.0,30.29,West,270,1.0,-999.0,65,-99.99,,,-99.99,,2013-03-26 04:23:00,
2013-03-26 00:32:00,30.0,20.0,30.30,West,269,1.0,-999.0,67,-99.99,,,-99.99,,2013-03-26 04:32:00,
2013-03-26 00:43:00,30.0,20.0,30.30,West,269,1.0,-999.0,67,-99.99,,,-99.99,,2013-03-26 04:43:00,
2013-03-26 00:52:00,31.0,22.0,30.30,West,270,1.0,-999.0,68,-99.99,,,-99.99,,2013-03-26 04:52:00,
2013-03-26 01:02:00,31.0,22.0,30.30,West,274,2.0,-999.0,68,-99.99,,,-99.99,,2013-03-26 05:02:00,
2013-03-26 01:12:00,31.0,22.0,30.30,West,274,2.0,-999.0,68,-99.99,,,-99.99,,2013-03-26 05:12:00,
2013-03-26 01:22:00,31.0,22.0,30.30,WSW,257,1.0,-999.0,69,-99.99,,,-99.99,,2013-03-26 05:22:00,
2013-03-26 01:32:00,31.0,22.0,30.30,WSW,257,1.0,-999.0,69,-99.99,,,-99.99,,2013-03-26 05:32:00,
2013-03-26 01:42:00,31.0,22.0,30.30,WSW,257,1.0,-999.0,69,-99.99,,,-99.99,,2013-03-26 05:42:00,
2013-03-26 01:52:00,31.0,22.0,30.30,West,271,1.0,-999.0,70,-99.99,,,-99.99,,2013-03-26 05:52:00,
2013-03-26 02:02:00,31.0,22.0,30.30,West,268,2.0,-999.0,70,-99.99,,,-99.99,,2013-03-26 06:02:00,
2013-03-26 02:12:00,31.0,22.0,30.30,West,268,2.0,-999.0,70,-99.99,,,-99.99,,2013-03-26 06:12:00,
2013-03-26 02:22:00,31.0,22.0,30.30,West,273,2.0,-999.0,70,-99.99,,,-99.99,,2013-03-26 06:22:00,
2013-03-26 02:32:00,31.0,23.0,30.31,West,261,1.0,-999.0,71,-99.99,,,-99.99,,2013-03-26 06:32:00,
2013-03-26 02:42:00,31.0,23.0,30.31,West,261,1.0,-999.0,71,-99.99,,,-99.99,,2013-03-26 06:42:00,
2013-03-26 02:52:00,31.0,23.0,30.31,WSW,258,2.0,-999.0,71,-99.99,,,-99.99,,2013-03-26 06:52:00,
2013-03-26 03:02:00,31.0,23.0,30.31,WSW,258,1.0,-999.0,72,-99.99,,,-99.99,,2013-03-26 07:02:00,
2013-03-26 03:12:00,31.0,23.0,30.31,WSW,258,1.0,-999.0,72,-99.99,,,-99.99,,2013-03-26 07:12:00,
2013-03-26 03:22:00,31.0,23.0,30.30,WSW,256,2.0,-999.0,72,-99.99,,,-99.99,,2013-03-26 07:22:00,
2013-03-26 03:33:00,31.0,23.0,30.30,WSW,256,2.0,-999.0,72,-99.99,,,-99.99,,2013-03-26 07:33:00,
2013-03-26 03:42:00,31.0,23.0,30.30,WSW,256,2.0,-999.0,72,-99.99,,,-99.99,,2013-03-26 07:42:00,
2013-03-26 03:52:00,32.0,24.0,30.30,WNW,292,3.0,-999.0,71,-99.99,,,-99.99,,2013-03-26 07:52:00,
2013-03-26 04:02:00,32.0,24.0,30.30,West,269,2.0,-999.0,72,-99.99,,,-99.99,,2013-03-26 08:02:00,
2013-03-26 04:12:00,32.0,24.0,30.30,West,269,2.0,-999.0,72,-99.99,,,-99.99,,2013-03-26 08:12:00,
2013-03-26 04:22:00,32.0,24.0,30.30,West,266,2.0,-999.0,72,-99.99,,,-99.99,,2013-03-26 08:22:00,
2013-03-26 04:32:00,32.0,24.0,30.31,WSW,245,2.0,-999.0,72,-99.99,,,-99.99,,2013-03-26 08:32:00,
2013-03-26 04:42:00,32.0,24.0,30.31,WSW,245,2.0,-999.0,72,-99.99,,,-99.99,,2013-03-26 08:42:00,
2013-03-26 04:52:00,32.0,24.0,30.30,WSW,256,1.0,-999.0,72,-99.99,,,-99.99,,2013-03-26 08:52:00,
2013-03-26 05:02:00,31.0,23.0,30.30,West,259,1.0,-999.0,73,-99.99,,,-99.99,,2013-03-26 09:02:00,
2013-03-26 05:12:00,31.0,23.0,30.30,West,259,1.0,-999.0,73,-99.99,,,-99.99,,2013-03-26 09:12:00,
2013-03-26 05:22:00,31.0,23.0,30.30,West,266,2.0,-999.0,73,-99.99,,,-99.99,,2013-03-26 09:22:00,
2013-03-26 05:33:00,31.0,23.0,30.30,West,262,2.0,-999.0,73,-99.99,,,-99.99,,2013-03-26 09:33:00,
2013-03-26 05:42:00,31.0,23.0,30.30,West,262,2.0,-999.0,73,-99.99,,,-99.99,,2013-03-26 09:42:00,
2013-03-26 05:52:00,31.0,24.0,30.30,West,276,1.0,-999.0,74,-99.99,,,-99.99,,2013-03-26 09:52:00,
2013-03-26 06:02:00,30.0,23.0,30.30,West,275,0.0,-999.0,75,-99.99,,,-99.99,,2013-03-26 10:02:00,
2013-03-26 06:12:00,30.0,23.0,30.30,West,275,0.0,-999.0,75,-99.99,,,-99.99,,2013-03-26 10:12:00,
2013-03-26 06:22:00,30.0,23.0,30.30,West,267,1.0,-999.0,75,-99.99,,,-99.99,,2013-03-26 10:22:00,
2013-03-26 06:32:00,29.0,22.0,30.30,West,267,1.0,-999.0,76,-99.99,,,-99.99,,2013-03-26 10:32:00,
2013-03-26 06:42:00,29.0,22.0,30.30,West,267,1.0,-999.0,76,-99.99,,,-99.99,,2013-03-26 10:42:00,
2013-03-26 06:52:00,29.0,23.0,30.31,West,267,0.0,-999.0,77,-99.99,,,-99.99,,2013-03-26 10:52:00,
2013-03-26 07:03:00,29.0,22.0,30.31,West,267,0.0,-999.0,76,-99.99,,,-99.99,,2013-03-26 11:03:00,
2013-03-26 07:12:00,29.0,22.0,30.31,West,267,0.0,-999.0,76,-99.99,,,-99.99,,2013-03-26 11:12:00,
2013-03-26 07:22:00,29.0,23.0,30.31,West,267,0.0,-999.0,77,-99.99,,,-99.99,,2013-03-26 11:22:00,
2013-03-26 07:32:00,29.0,23.0,30.32,West,267,0.0,-999.0,78,-99.99,,,-99.99,,2013-03-26 11:32:00,
2013-03-26 07:42:00,29.0,23.0,30.32,West,267,0.0,-999.0,78,-99.99,,,-99.99,,2013-03-26 11:42:00,
2013-03-26 07:52:00,28.0,22.0,30.32,West,267,0.0,-999.0,78,-99.99,,,-99.99,,2013-03-26 11:52:00,
2013-03-26 08:03:00,28.0,22.0,30.32,West,267,0.0,-999.0,78,-99.99,,,-99.99,,2013-03-26 12:03:00,
2013-03-26 08:12:00,27.0,22.0,30.33,West,267,0.0,-999.0,81,-99.99,,,-99.99,,2013-03-26 12:12:00,
2013-03-26 08:22:00,27.0,22.0,30.34,West,267,0.0,-999.0,81,-99.99,,,-99.99,,2013-03-26 12:22:00,
2013-03-26 08:32:00,27.0,23.0,30.34,West,267,0.0,-999.0,83,-99.99,,,-99.99,,2013-03-26 12:32:00,
2013-03-26 08:52:00,27.0,23.0,30.35,West,267,0.0,-999.0,85,-99.99,,,-99.99,,2013-03-26 12:52:00,
2013-03-26 09:03:00,27.0,23.0,30.35,West,267,0.0,-999.0,84,-99.99,,,-99.99,,2013-03-26 13:03:00,
2013-03-26 09:12:00,27.0,23.0,30.35,West,267,0.0,-999.0,84,-99.99,,,-99.99,,2013-03-26 13:12:00,
2013-03-26 09:22:00,29.0,24.0,30.36,West,267,0.0,-999.0,81,-99.99,,,-99.99,,2013-03-26 13:22:00,
2013-03-26 09:32:00,31.0,24.0,30.37,West,267,1.0,-999.0,75,-99.99,,,-99.99,,2013-03-26 13:32:00,
2013-03-26 09:42:00,31.0,24.0,30.37,West,267,1.0,-999.0,75,-99.99,,,-99.99,,2013-03-26 13:42:00,
2013-03-26 09:52:00,32.0,24.0,30.37,NW,322,3.0,-999.0,71,-99.99,,,-99.99,,2013-03-26 13:52:00,
2013-03-26 10:02:00,33.0,24.0,30.38,West,272,4.0,-999.0,70,-99.99,,,-99.99,,2013-03-26 14:02:00,
2013-03-26 10:11:00,33.0,24.0,30.38,West,272,4.0,-999.0,70,-99.99,,,-99.99,,2013-03-26 14:11:00,
2013-03-26 10:22:00,33.0,24.0,30.39,WSW,242,6.0,-999.0,68,-99.99,,,-99.99,,2013-03-26 14:22:00,
2013-03-26 10:32:00,33.0,24.0,30.39,SW,227,5.0,-999.0,68,-99.99,,,-99.99,,2013-03-26 14:32:00,
2013-03-26 10:42:00,33.0,24.0,30.39,SW,227,5.0,-999.0,68,-99.99,,,-99.99,,2013-03-26 14:42:00,
2013-03-26 10:53:00,33.0,23.0,30.40,WNW,284,4.0,-999.0,67,-99.99,,,-99.99,,2013-03-26 14:53:00,
2013-03-26 11:02:00,34.0,24.0,30.40,WNW,298,3.0,-999.0,67,-99.99,,,-99.99,,2013-03-26 15:02:00,
2013-03-26 11:12:00,34.0,24.0,30.40,WNW,298,3.0,-999.0,67,-99.99,,,-99.99,,2013-03-26 15:12:00,
2013-03-26 11:22:00,35.0,25.0,30.40,West,263,4.0,-999.0,67,-99.99,,,-99.99,,2013-03-26 15:22:00,
2013-03-26 11:33:00,35.0,24.0,30.39,West,269,5.0,-999.0,65,-99.99,,,-99.99,,2013-03-26 15:33:00,
2013-03-26 11:42:00,35.0,24.0,30.39,West,269,5.0,-999.0,65,-99.99,,,-99.99,,2013-03-26 15:42:00,
2013-03-26 11:53:00,35.0,24.0,30.40,SW,226,3.0,-999.0,64,-99.99,,,-99.99,,2013-03-26 15:53:00,
2013-03-26 12:02:00,36.0,24.0,30.40,West,273,4.0,-999.0,62,-99.99,,,-99.99,,2013-03-26 16:02:00,
2013-03-26 12:12:00,36.0,24.0,30.40,West,273,4.0,-999.0,62,-99.99,,,-99.99,,2013-03-26 16:12:00,
2013-03-26 12:22:00,37.0,24.0,30.40,WNW,302,3.0,-999.0,59,-99.99,,,-99.99,,2013-03-26 16:22:00,
2013-03-26 12:32:00,37.0,25.0,30.40,West,278,4.0,-999.0,62,-99.99,,,-99.99,,2013-03-26 16:32:00,
2013-03-26 12:42:00,37.0,25.0,30.40,West,278,4.0,-999.0,62,-99.99,,,-99.99,,2013-03-26 16:42:00,
2013-03-26 12:53:00,38.0,24.0,30.40,NW,321,4.0,-999.0,56,-99.99,,,-99.99,,2013-03-26 16:53:00,
2013-03-26 13:02:00,38.0,23.0,30.40,NW,319,4.0,-999.0,54,-99.99,,,-99.99,,2013-03-26 17:02:00,
2013-03-26 13:12:00,38.0,23.0,30.40,NW,319,4.0,-999.0,54,-99.99,,,-99.99,,2013-03-26 17:12:00,
2013-03-26 13:23:00,38.0,24.0,30.40,North,360,3.0,-999.0,57,-99.99,,,-99.99,,2013-03-26 17:23:00,
2013-03-26 13:32:00,39.0,23.0,30.40,WSW,252,3.0,-999.0,53,-99.99,,,-99.99,,2013-03-26 17:32:00,
2013-03-26 13:42:00,39.0,23.0,30.40,WSW,252,3.0,-999.0,53,-99.99,,,-99.99,,2013-03-26 17:42:00,
2013-03-26 13:53:00,40.0,25.0,30.39,WSW,242,5.0,-999.0,55,-99.99,,,-99.99,,2013-03-26 17:53:00,
2013-03-26 14:02:00,39.0,23.0,30.39,West,275,4.0,-999.0,52,-99.99,,,-99.99,,2013-03-26 18:02:00,
2013-03-26 14:12:00,39.0,23.0,30.39,West,275,4.0,-999.0,52,-99.99,,,-99.99,,2013-03-26 18:12:00,
2013-03-26 14:23:00,40.0,24.0,30.39,WNW,300,4.0,-999.0,52,-99.99,,,-99.99,,2013-03-26 18:23:00,
2013-03-26 14:33:00,40.0,23.0,30.38,WNW,295,3.0,-999.0,50,-99.99,,,-99.99,,2013-03-26 18:33:00,
2013-03-26 14:42:00,40.0,23.0,30.38,WNW,295,3.0,-999.0,50,-99.99,,,-99.99,,2013-03-26 18:42:00,
2013-03-26 14:53:00,41.0,22.0,30.37,NW,317,5.0,-999.0,47,-99.99,,,-99.99,,2013-03-26 18:53:00,
2013-03-26 15:02:00,42.0,23.0,30.37,WSW,243,3.0,-999.0,46,-99.99,,,-99.99,,2013-03-26 19:02:00,
2013-03-26 15:12:00,42.0,23.0,30.37,WSW,243,3.0,-999.0,46,-99.99,,,-99.99,,2013-03-26 19:12:00,
2013-03-26 15:22:00,43.0,23.0,30.37,SW,220,6.0,-999.0,44,-99.99,,,-99.99,,2013-03-26 19:22:00,
2013-03-26 15:32:00,43.0,23.0,30.37,SW,220,6.0,-999.0,44,-99.99,,,-99.99,,2013-03-26 19:32:00,
2013-03-26 15:42:00,43.0,23.0,30.37,SW,220,6.0,-999.0,44,-99.99,,,-99.99,,2013-03-26 19:42:00,
2013-03-26 15:53:00,44.0,25.0,30.35,SW,236,4.0,-999.0,47,-99.99,,,-99.99,,2013-03-26 19:53:00,
2013-03-26 16:02:00,44.0,23.0,30.35,WSW,247,2.0,-999.0,44,-99.99,,,-99.99,,2013-03-26 20:02:00,
2013-03-26 16:13:00,44.0,23.0,30.35,WSW,247,2.0,-999.0,44,-99.99,,,-99.99,,2013-03-26 20:13:00,
2013-03-26 16:22:00,44.0,23.0,30.35,WSW,247,2.0,-999.0,44,-99.99,,,-99.99,,2013-03-26 20:22:00,
2013-03-26 16:32:00,44.0,25.0,30.35,NE,46,3.0,-999.0,46,-99.99,,,-99.99,,2013-03-26 20:32:00,
2013-03-26 16:42:00,44.0,25.0,30.35,NE,46,3.0,-999.0,46,-99.99,,,-99.99,,2013-03-26 20:42:00,
2013-03-26 16:52:00,44.0,22.0,30.34,West,259,4.0,-999.0,42,-99.99,,,-99.99,,2013-03-26 20:52:00,
2013-03-26 17:02:00,46.0,25.0,30.33,WNW,286,4.0,-999.0,43,-99.99,,,-99.99,,2013-03-26 21:02:00,
2013-03-26 17:12:00,46.0,25.0,30.33,WNW,286,4.0,-999.0,43,-99.99,,,-99.99,,2013-03-26 21:12:00,
2013-03-26 17:22:00,46.0,25.0,30.33,WNW,286,4.0,-999.0,43,-99.99,,,-99.99,,2013-03-26 21:22:00,
2013-03-26 17:32:00,46.0,25.0,30.33,WNW,286,4.0,-999.0,43,-99.99,,,-99.99,,2013-03-26 21:32:00,
2013-03-26 17:42:00,46.0,25.0,30.33,WNW,286,4.0,-999.0,43,-99.99,,,-99.99,,2013-03-26 21:42:00,
2013-03-26 18:22:00,46.0,23.0,30.32,North,355,2.0,-999.0,40,-99.99,,,-99.99,,2013-03-26 22:22:00,
2013-03-26 18:33:00,46.0,23.0,30.32,North,355,2.0,-999.0,40,-99.99,,,-99.99,,2013-03-26 22:33:00,
2013-03-26 18:42:00,46.0,23.0,30.32,North,355,2.0,-999.0,40,-99.99,,,-99.99,,2013-03-26 22:42:00,
2013-03-26 19:22:00,46.0,24.0,30.31,NNW,330,3.0,-999.0,41,-99.99,,,-99.99,,2013-03-26 23:22:00,
2013-03-26 19:32:00,46.0,24.0,30.31,NW,311,1.0,-999.0,41,-99.99,,,-99.99,,2013-03-26 23:32:00,
2013-03-26 19:43:00,46.0,24.0,30.31,NW,311,1.0,-999.0,41,-99.99,,,-99.99,,2013-03-26 23:43:00,
2013-03-26 19:52:00,46.0,24.0,30.31,NW,306,2.0,-999.0,41,-99.99,,,-99.99,,2013-03-26 23:52:00,
2013-03-26 20:02:00,46.0,23.0,30.31,NW,304,1.0,-999.0,40,-99.99,,,-99.99,,2013-03-27 00:02:00,
2013-03-26 20:12:00,46.0,23.0,30.31,NW,304,1.0,-999.0,40,-99.99,,,-99.99,,2013-03-27 00:12:00,
2013-03-26 20:22:00,45.0,23.0,30.30,NW,304,0.0,-999.0,42,-99.99,,,-99.99,,2013-03-27 00:22:00,
2013-03-26 20:32:00,44.0,25.0,30.31,NW,304,0.0,-999.0,46,-99.99,,,-99.99,,2013-03-27 00:32:00,
2013-03-26 20:42:00,44.0,25.0,30.31,NW,304,0.0,-999.0,46,-99.99,,,-99.99,,2013-03-27 00:42:00,
2013-03-26 20:52:00,43.0,27.0,30.31,NW,304,0.0,-999.0,53,-99.99,,,-99.99,,2013-03-27 00:52:00,
2013-03-26 21:02:00,40.0,26.0,30.31,NW,304,0.0,-999.0,58,-99.99,,,-99.99,,2013-03-27 01:02:00,
2013-03-26 21:12:00,40.0,26.0,30.31,NW,304,0.0,-999.0,58,-99.99,,,-99.99,,2013-03-27 01:12:00,
2013-03-26 21:22:00,38.0,27.0,30.32,NW,304,0.0,-999.0,64,-99.99,,,-99.99,,2013-03-27 01:22:00,
2013-03-26 21:33:00,36.0,26.0,30.32,NW,304,0.0,-999.0,67,-99.99,,,-99.99,,2013-03-27 01:33:00,
2013-03-26 21:42:00,36.0,26.0,30.32,NW,304,0.0,-999.0,67,-99.99,,,-99.99,,2013-03-27 01:42:00,
2013-03-26 21:53:00,35.0,26.0,30.32,NW,304,0.0,-999.0,68,-99.99,,,-99.99,,2013-03-27 01:53:00,
2013-03-26 22:02:00,34.0,26.0,30.32,NW,304,0.0,-999.0,72,-99.99,,,-99.99,,2013-03-27 02:02:00,
2013-03-26 22:12:00,34.0,26.0,30.32,NW,304,0.0,-999.0,72,-99.99,,,-99.99,,2013-03-27 02:12:00,
2013-03-26 22:22:00,32.0,24.0,30.32,NW,304,0.0,-999.0,71,-99.99,,,-99.99,,2013-03-27 02:22:00,
2013-03-26 22:32:00,31.0,23.0,30.32,NW,304,0.0,-999.0,72,-99.99,,,-99.99,,2013-03-27 02:32:00,
2013-03-26 22:42:00,31.0,23.0,30.32,NW,304,0.0,-999.0,72,-99.99,,,-99.99,,2013-03-27 02:42:00,
2013-03-26 22:53:00,31.0,24.0,30.33,NW,304,0.0,-999.0,74,-99.99,,,-99.99,,2013-03-27 02:53:00,
2013-03-26 23:02:00,30.0,23.0,30.33,NW,304,0.0,-999.0,75,-99.99,,,-99.99,,2013-03-27 03:02:00,
2013-03-26 23:12:00,30.0,23.0,30.33,NW,304,0.0,-999.0,75,-99.99,,,-99.99,,2013-03-27 03:12:00,
2013-03-26 23:22:00,29.0,23.0,30.33,NW,304,0.0,-999.0,77,-99.99,,,-99.99,,2013-03-27 03:22:00,
2013-03-26 23:33:00,29.0,23.0,30.33,NW,304,0.0,-999.0,77,-99.99,,,-99.99,,2013-03-27 03:33:00,
2013-03-26 23:42:00,29.0,23.0,30.33,NW,304,0.0,-999.0,77,-99.99,,,-99.99,,2013-03-27 03:42:00,
2013-03-26 23:53:00,28.0,22.0,30.34,NW,304,0.0,-999.0,78,-99.99,,,-99.99,,2013-03-27 03:53:00,